Regional Weather Roundup
Issued by NWS Charleston, SC

Current Version | Previous Version | Graphics & Text | Print | Product List | Glossary On
Versions: 1 2 3 4 5 6 7 8 9 10 11 12 13 14 15 16 17 18 19 20 21 22 23 24 25 26 27 28 29 30 31 32 33 34 35 36 37 38 39 40 41 42 43 44 45 46 47 48 49 50
000 ASUS42 KCHS 020627 RWRCHS REGIONAL WEATHER ROUNDUP NATIONAL WEATHER SERVICE CHARLESTON SC 200 AM EDT WED SEP 02 2015 NOTE: "FAIR" INDICATES FEW OR NO CLOUDS BELOW 12,000 FEET WITH NO SIGNIFICANT WEATHER AND/OR OBSTRUCTIONS TO VISIBILITY. NOT ALL STATIONS ARE QUALITY CONTROLLED BY THE NATIONAL WEATHER SERVICE. USE DATA WITH CAUTION...ESPECIALLY DEWPOINT OBSERVATIONS. SCZ027-030-031-034>040-042>050-020700- ...SOUTHEAST SOUTH CAROLINA... CITY SKY/WX TMP DP RH WIND PRES REMARKS N CHARLESTON FAIR 78 74 87 CALM 30.07F 6HR MIN TEMP: 77; 6HR MAX TEMP: 81; WATERFRONT PRK N/A 80 77 90 CALM 30.06S MOUNT PLEASANT LGT RAIN 75 75 100 CALM 30.07F JOHNS ISLAND FAIR 77 75 94 CALM 30.07F PINOPOLIS N/A 81 75 83 SW5 30.02R MONCKS CORNER FAIR 75 72 88 CALM 30.07F FOG SUMMERVILLE FAIR 73 73 100 CALM 30.08F BEAUFORT MCAS FAIR 78 75 90 CALM 30.07F 6HR MIN TEMP: 77; 6HR MAX TEMP: 81; BEAUFORT ARPT FAIR 77 77 100 CALM 30.06F HILTON HEAD IS FAIR 79 77 94 CALM 30.07F WALTERBORO FAIR 75 73 94 CALM 30.08F ALLENDALE FAIR 73 73 100 CALM 30.07S ...SOUTHERN MIDLANDS AND PEE DEE... CITY SKY/WX TMP DP RH WIND PRES REMARKS GEORGETOWN NOT AVBL KINGSTREE NOT AVBL ORANGEBURG FAIR 74 72 93 CALM 30.09F 6HR MIN TEMP: 74; 6HR MAX TEMP: 83; BARNWELL FAIR 73 72 94 CALM 30.09S AIKEN FAIR 70 68 94 CALM 30.13S MANNING FAIR 73 72 94 CALM 30.08F COLUMBIA FAIR 75 69 81 CALM 30.08F 6HR MIN TEMP: 75; 6HR MAX TEMP: 85; SUMTER FAIR 76 72 88 SW6 30.07S 6HR MIN TEMP: 76; 6HR MAX TEMP: 85; FLORENCE FAIR 75 72 90 W3 30.08S 6HR MIN TEMP: 75; 6HR MAX TEMP: 84; MYRTLE BEACH FAIR 75 70 83 CALM 30.09F N MYRTLE BEACH FAIR 76 73 91 W3 30.07S 6HR MIN TEMP: 75; 6HR MAX TEMP: 81; $$ GAZ063-065-086>088-099>101-113>116-118-119-134>141-150-020700- ...SOUTHEAST GEORGIA... CITY SKY/WX TMP DP RH WIND PRES REMARKS SAVANNAH ARPT FAIR 77 74 90 CALM 30.07F 6HR MIN TEMP: 77; 6HR MAX TEMP: 81; HUNTER AAF FAIR 77 77 100 N1 30.04F 6HR MIN TEMP: 76; 6HR MAX TEMP: 80; FORT STEWART FAIR 75 73 94 CALM 30.05F 6HR MIN TEMP: 75; 6HR MAX TEMP: 80; STATESBORO FAIR 74 32 21 CALM 30.07F HAZE SYLVANIA FAIR 75 75 100 CALM 30.08F FOG CLAXTON NOT AVBL ...CSRA...CENTRAL AND FAR SOUTHEAST GEORGIA... CITY SKY/WX TMP DP RH WIND PRES REMARKS THOMSON FAIR 71 71 100 CALM 30.14F AUGUSTA-BUSH FAIR 71 71 100 CALM 30.08F FOG 6HR MIN TEMP: 70; 6HR MAX TEMP: 80; AUGUSTA-DANIEL FAIR 77 71 82 SW3 30.10S SWAINSBORO FAIR N/A N/A N/A CALM 30.09F VIDALIA FAIR 75 73 94 CALM 30.08F EASTMAN FOG 73 73 100 CALM 30.11S VSB 1/2 HAZLEHURST MOCLDY 77 77 100 CALM 30.07S ALMA FAIR 76 75 97 CALM 30.07F 6HR MIN TEMP: 75; 6HR MAX TEMP: 80; WAYCROSS FAIR 79 79 100 S3 30.06F JESUP FAIR 77 77 100 CALM 30.07F BAXLEY FAIR 77 77 100 CALM 30.07S BRUNSWICK N/A 72 72 100 CALM 30.07F SAINT SIMONS FAIR 79 77 94 SE3 30.07F 6HR MIN TEMP: 77; 6HR MAX TEMP: 79; $$ SCZ027-028-034-036>038-045-046-048>050-GAZ119-141-020700- ...LAKE AND SUPPLEMENTAL COASTAL OBSERVATIONS... STATION/POSITION TIME TEMP WIND PRES WAVE SWELL AIR SEA DIR/SP/G HT/PER HT/PER/DIR (UTC) (F) (DEG/KT/KT) (MB) (FT/S) (FT/S/D) UPR LAKE MARION NOT AVBL WINYAH BAY 0500 76 260/ 2 1018.0S LAKE MURRAY 0500 79 CALM 1018.3S ACE BASIN NERRS NOT AVBL FORT PULASKI 0600 80 83 160/ 3/ 5 1018.5F SAPELO ISLAND 0600 77 90/ 1 1018.0F $$ ANZ835-935-AMZ111-154-330-350-352-354-370-450-454-472-020700- ...C-MAN AND BUOY OBSERVATIONS... STATION/POSITION TIME TEMP WIND PRES WAVE SWELL AIR SEA DIR/SP/G HT/PER HT/PER/DIR (UTC) (F) (DEG/KT/KT) (MB) (FT/S) (FT/S/D) BUOY 41004 0550 83 82 200/ 8/ 8 1018.0F 2/ 7 2/ 7 BUOY 41008 0550 82 84 180/ 8/ 8 1018.4F 2/10 2/110/10 FOLLY BEACH CMAN 0600 80 260/ 2/ 2 1018.5F CAPERS NEARSHORE 0508 82 210/ 8/ 10 1018.8F FRIPP NEARSHORE 0500 82 200/ 8/ 10 1018.3R STATION/POSITION TIME TEMP WIND PRES WAVE SWELL AIR SEA DIR/SP/G HT/PER HT/PER/DIR (UTC) (F) (DEG/KT/KT) (MB) (FT/S) (FT/S/D) 5E ST. MARYS GA 0521 85 N/A 2/ 8 FRYING PAN BUOY 0550 82 81 240/ 6/ 6 1018.6F 1/ 9 2/110/ 9 BUOY 41025 0550 80 83 290/ 6/ 8 1017.8F 2/10 2/110/10 CAPE LOOKOUT NC 0600 80 270/ 9/ 11 1017.8F BUOY 41002 0550 84 84 270/ 8/ 10 1018.2F 3/ 9 2/110/ 9 BUOY 41010 0520 84 86 140/ 4/ 4 1018.8F ST AUGUSTINE FL 0600 83 83 160/ 6/ 6 1019.0F $$

USA.gov is the U.S. government's official web portal to all federal, state and local government web resources and services.